This demonstration page uses our WeatherBlox Daily Observations layout. Learn more.

Left ArrowRight Arrow

Hourly Observations for December 1, 2020

Temp ( °F °C ) Dew Point ( °F °C ) Humidity (%) Winds ( mph kmh ) Pressure ( in mb ) Visibility ( mi km ) Precip ( " mm )
12:15 am 00:15 Cloudy 43 6 34 1 71 71 WNW 8 13 29.55 1001 10 16.0934 0 0
12:35 am 00:35 Cloudy 43 6 34 1 71 71 WNW 6 9 29.55 1001 10 16.0934 0 0
12:55 am 00:55 Cloudy 43 6 34 1 71 71 WNW 5 7 29.55 1001 10 16.0934 0 0
1:15 am 01:15 Cloudy 43 6 34 1 71 71 WNW 6 9 29.55 1001 10 16.0934 0 0
1:35 am 01:35 Cloudy 43 6 34 1 71 71 WNW 8 13 29.54 1000 10 16.0934 0 0
1:55 am 01:55 Cloudy 43 6 34 1 71 71 NW 6 9 29.55 1001 10 16.0934 0 0
2:15 am 02:15 Cloudy 43 6 34 1 71 71 NW 7 11 29.54 1000 10 16.0934 0 0
2:35 am 02:35 Cloudy 43 6 34 1 71 71 Calm 29.55 1001 10 16.0934 0 0
2:55 am 02:55 Cloudy 43 6 34 1 71 71 Calm 29.56 1001 10 16.0934 0 0
3:15 am 03:15 Cloudy 43 6 34 1 71 71 Calm 29.57 1001 10 16.0934 0 0
3:35 am 03:35 Cloudy 43 6 34 1 71 71 NNW 3 6 29.57 1001 10 16.0934 0 0
3:55 am 03:55 Cloudy 43 6 34 1 71 71 NW 5 7 29.57 1001 10 16.0934 0 0
4:15 am 04:15 Cloudy 43 6 32 0 66 66 WNW 9 15 29.58 1002 10 16.0934 0 0
4:35 am 04:35 Cloudy 41 5 32 0 70 70 WNW 9 15 29.58 1002 10 16.0934 0 0
4:55 am 04:55 Cloudy 41 5 32 0 70 70 WNW 14 22 29.59 1002 10 16.0934 0 0
5:15 am 05:15 Cloudy 41 5 34 1 76 76 WNW 10 17 29.6 1002 10 16.0934 0 0
5:35 am 05:35 Cloudy 39 4 34 1 81 81 WNW 9 15 29.61 1003 10 16.0934 0 0
5:55 am 05:55 Cloudy 37 3 34 1 87 87 WNW 8 13 29.63 1003 10 16.0934 0 0
6:15 am 06:15 Cloudy 37 3 34 1 87 87 WNW 10 17 29.64 1004 7 11.26538 0 0
6:35 am 06:35 Cloudy 36 2 34 1 93 93 WNW 8 13 29.64 1004 10 16.0934 0 0
6:55 am 06:55 Cloudy 36 2 34 1 93 93 WNW 12 19 29.65 1004 10 16.0934 0 0
7:15 am 07:15 Cloudy 36 2 34 1 93 93 W 3 6 29.66 1004 10 16.0934 0 0
7:35 am 07:35 Cloudy 36 2 34 1 93 93 SW 3 6 29.66 1004 10 16.0934 0 0
7:55 am 07:55 Cloudy 36 2 36 2 100 100 Calm 29.67 1005 10 16.0934 0 0
8:15 am 08:15 Cloudy 36 2 36 2 100 100 Calm 29.67 1005 10 16.0934 0 0
8:35 am 08:35 Cloudy 37 3 34 1 87 87 W 10 17 29.68 1005 10 16.0934 0 0
8:55 am 08:55 Cloudy 39 4 32 0 75 75 W 13 20 29.69 1005 10 16.0934 0 0
9:15 am 09:15 Cloudy 41 5 32 0 70 70 W 10 17 29.68 1005 10 16.0934 0 0
9:35 am 09:35 Cloudy 41 5 30 -1 66 66 W 15 24 29.69 1006 10 16.0934 0 0
9:55 am 09:55 Mostly Cloudy 43 6 32 0 66 66 W 20 31 29.7 1006 10 16.0934 0 0
10:15 am 10:15 Cloudy 43 6 30 -1 61 61 WNW 17 28 29.71 1006 10 16.0934 0 0
10:35 am 10:35 Mostly Cloudy 43 6 30 -1 61 61 WNW 16 26 29.71 1006 10 16.0934 0 0
10:55 am 10:55 Mostly Cloudy 43 6 30 -1 61 61 W 26 43 29.72 1007 10 16.0934 0 0
11:15 am 11:15 Cloudy 43 6 30 -1 61 61 WNW 17 28 29.72 1007 10 16.0934 0 0
11:35 am 11:35 Cloudy 43 6 28 -2 57 57 WNW 22 35 29.72 1007 10 16.0934 0.01 0.254
11:55 am 11:55 Cloudy 41 5 27 -3 57 57 WNW 18 30 29.72 1007 10 16.0934 0.01 0.254
12:15 pm 12:15 Cloudy 43 6 27 -3 53 53 W 22 35 29.72 1007 10 16.0934 0 0
12:35 pm 12:35 Cloudy 43 6 27 -3 53 53 WNW 15 24 29.73 1007 10 16.0934 0 0
12:55 pm 12:55 Cloudy 43 6 27 -3 53 53 W 18 30 29.73 1007 10 16.0934 0 0
1:15 pm 13:15 Cloudy 41 5 27 -3 57 57 WNW 21 33 29.74 1007 10 16.0934 0 0
1:35 pm 13:35 Cloudy 43 6 27 -3 53 53 WNW 16 26 29.74 1007 10 16.0934 0 0
1:55 pm 13:55 Cloudy 43 6 27 -3 53 53 WNW 16 26 29.75 1008 10 16.0934 0 0
2:15 pm 14:15 Cloudy 43 6 25 -4 49 49 WNW 20 31 29.75 1008 10 16.0934 0 0
2:35 pm 14:35 Cloudy 41 5 27 -3 57 57 W 12 19 29.76 1008 10 16.0934 0 0
2:55 pm 14:55 Cloudy 41 5 27 -3 57 57 W 14 22 29.76 1008 10 16.0934 0 0
3:15 pm 15:15 Cloudy 41 5 25 -4 53 53 W 14 22 29.78 1009 10 16.0934 0 0
3:35 pm 15:35 Cloudy 41 5 27 -3 57 57 WNW 16 26 29.78 1009 10 16.0934 0 0
3:55 pm 15:55 Cloudy 41 5 27 -3 57 57 W 14 22 29.8 1009 10 16.0934 0 0
4:15 pm 16:15 Cloudy 41 5 27 -3 57 57 W 17 28 29.81 1010 10 16.0934 0 0
4:35 pm 16:35 Cloudy 39 4 27 -3 61 61 W 13 20 29.83 1010 10 16.0934 0 0
4:55 pm 16:55 Cloudy 41 5 25 -4 53 53 W 8 13 29.83 1010 10 16.0934 0 0
5:15 pm 17:15 Cloudy 39 4 25 -4 56 56 W 22 35 29.85 1011 10 16.0934 0 0
5:35 pm 17:35 Cloudy 39 4 25 -4 56 56 W 14 22 29.86 1011 10 16.0934 0 0
5:55 pm 17:55 Cloudy 39 4 25 -4 56 56 W 8 13 29.87 1011 10 16.0934 0 0
6:15 pm 18:15 Cloudy 37 3 25 -4 60 60 W 10 17 29.88 1012 10 16.0934 0 0
6:35 pm 18:35 Mostly Cloudy 37 3 25 -4 60 60 WNW 13 20 29.89 1012 10 16.0934 0 0
6:55 pm 18:55 Mostly Cloudy 37 3 25 -4 60 60 W 14 22 29.9 1012 10 16.0934 0 0
7:15 pm 19:15 Cloudy 37 3 27 -3 65 65 W 7 11 29.9 1012 10 16.0934 0 0
7:35 pm 19:35 Cloudy 37 3 25 -4 60 60 W 7 11 29.91 1013 10 16.0934 0 0
7:55 pm 19:55 Cloudy 37 3 25 -4 60 60 W 14 22 29.91 1013 10 16.0934 0 0
8:15 pm 20:15 Cloudy 37 3 25 -4 60 60 WNW 17 28 29.91 1013 10 16.0934 0 0
8:35 pm 20:35 Cloudy 37 3 23 -5 56 56 WNW 15 24 29.92 1013 10 16.0934 0 0
8:55 pm 20:55 Mostly Cloudy 37 3 23 -5 56 56 WNW 15 24 29.93 1013 10 16.0934 0 0
9:15 pm 21:15 Cloudy 37 3 23 -5 56 56 WNW 10 17 29.93 1013 10 16.0934 0 0
9:35 pm 21:35 Cloudy 37 3 23 -5 56 56 WNW 12 19 29.93 1013 10 16.0934 0 0
9:55 pm 21:55 Cloudy 37 3 23 -5 56 56 WSW 10 17 29.94 1014 10 16.0934 0 0
10:15 pm 22:15 Cloudy 37 3 25 -4 60 60 W 12 19 29.94 1014 10 16.0934 0 0
10:35 pm 22:35 Cloudy 37 3 25 -4 60 60 W 12 19 29.95 1014 10 16.0934 0 0
10:55 pm 22:55 Cloudy 37 3 23 -5 56 56 W 8 13 29.95 1014 10 16.0934 0 0
11:15 pm 23:15 Cloudy 37 3 25 -4 60 60 W 12 19 29.95 1014 10 16.0934 0 0
11:35 pm 23:35 Mostly Cloudy 37 3 25 -4 60 60 W 13 20 29.96 1014 10 16.0934 0 0
11:55 pm 23:55 Partly Cloudy 37 3 25 -4 60 60 W 15 24 29.96 1014 10 16.0934 0 0

Powered by AerisWeather